Location: Songkhla
(7.2000°N, 100.6000°E)
Time: 03:27:02
(UTC+07:00)

SL-8 DEB - All Passes

Search period start: 21 January 2021 00:00
Search period end: 31 January 2021 00:00
Orbit: 1414 x 1696 km, 73.9° (Epoch: 02 June)

Date Brightness Start Highest point End Pass type
(mag) Time Alt. Az. Time Alt. Az. Time Alt. Az.
21 Jan - 06:33:02 10° SSE 06:41:20 40° E 06:49:11 10° NE daylight
21 Jan - 08:33:29 10° SW 08:40:35 26° WNW 08:47:28 10° NNW daylight
21 Jan - 17:15:28 10° NE 17:18:46 12° ENE 17:22:06 10° E daylight
21 Jan - 19:09:11 10° NNW 19:18:13 79° WSW 19:27:49 10° S visible
22 Jan - 06:00:50 10° SSE 06:07:51 25° E 06:14:33 10° NE visible
22 Jan - 07:58:47 10° SW 08:07:04 41° WNW 08:15:00 10° N daylight
22 Jan - 18:35:45 10° N 18:44:45 72° ENE 18:54:19 10° SSE visible
22 Jan - 20:39:47 10° WNW 20:44:01 14° W 20:48:22 10° SW visible
23 Jan - 05:29:45 10° SE 05:34:22 15° E 05:38:51 10° ENE visible
23 Jan - 07:24:42 10° SSW 07:33:35 63° WNW 07:42:02 10° N daylight
23 Jan - 18:02:39 10° N 18:11:17 49° ENE 18:20:22 10° SSE daylight
23 Jan - 20:03:43 10° NW 20:10:32 24° W 20:17:40 10° SSW visible
24 Jan - 06:51:04 10° S 07:00:07 87° ESE 07:08:41 10° NNE daylight
24 Jan - 17:30:00 10° NNE 17:37:47 32° ENE 17:45:55 10° SE daylight
24 Jan - 19:28:56 10° NW 19:37:03 37° W 19:45:38 10° SSW visible
25 Jan - 06:17:51 10° S 06:26:39 58° ESE 06:34:58 10° NNE daylight
25 Jan - 08:20:47 10° WSW 08:25:59 17° WNW 08:31:06 10° NW daylight
25 Jan - 16:58:01 10° NNE 17:04:15 20° ENE 17:10:40 10° ESE daylight
25 Jan - 18:54:45 10° NNW 19:03:35 56° W 19:12:58 10° S visible
26 Jan - 05:45:06 10° SSE 05:53:10 38° E 06:00:51 10° NE visible
26 Jan - 07:45:13 10° SW 07:52:25 28° WNW 07:59:24 10° NNW daylight
26 Jan - 16:27:54 10° ENE 16:30:38 11° ENE 16:33:24 10° E daylight
26 Jan - 18:21:00 10° NNW 18:30:08 82° WSW 18:39:49 10° S daylight
27 Jan - 05:12:59 10° SSE 05:19:42 24° E 05:26:08 10° NE visible
27 Jan - 07:10:37 10° SW 07:18:54 43° WNW 07:26:52 10° N daylight
27 Jan - 17:47:35 10° N 17:56:40 69° ENE 18:06:15 10° SSE daylight
27 Jan - 19:51:07 10° WNW 19:55:55 15° W 20:00:51 10° SW visible
28 Jan - 04:42:11 10° SE 04:46:13 14° E 04:50:09 10° ENE visible
28 Jan - 06:36:34 10° SSW 06:45:26 67° WNW 06:53:51 10° N daylight
28 Jan - 17:14:32 10° N 17:23:11 46° ENE 17:32:16 10° SSE daylight
28 Jan - 19:15:20 10° NW 19:22:26 25° W 19:29:52 10° SSW visible
29 Jan - 06:02:59 10° S 06:11:57 83° ESE 06:20:28 10° NNE visible
29 Jan - 16:41:56 10° NNE 16:49:41 31° ENE 16:57:44 10° SE daylight
29 Jan - 18:40:38 10° NW 18:48:58 39° W 18:57:44 10° SSW visible
30 Jan - 05:29:50 10° S 05:38:29 55° ESE 05:46:42 10° NNE visible
30 Jan - 07:32:22 10° WSW 07:37:49 18° WNW 07:43:09 10° NW daylight
30 Jan - 16:10:03 10° NNE 16:16:08 19° ENE 16:22:23 10° ESE daylight
30 Jan - 18:06:31 10° NNW 18:15:30 59° WSW 18:25:01 10° S daylight
